TimeBST,TemperatureF,Dew PointF,Humidity,Sea Level PressureIn,VisibilityMPH,Wind Direction,Wind SpeedMPH,Gust SpeedMPH,PrecipitationIn,Events,Conditions,WindDirDegrees,DateUTC
12:20 AM,46.4,44.6,93,29.44,5.6,South,6.9,-,N/A,,Mostly Cloudy,180,2013-04-11 23:20:00
12:50 AM,47,45,90,29.44,7,South,8.1,,,Rain,Light Drizzle,170,2013-04-11 23:50:00
12:50 AM,46.4,44.6,93,29.44,5.0,South,6.9,-,N/A,,Mostly Cloudy,190,2013-04-11 23:50:00
1:20 AM,46.4,44.6,93,29.42,6.2,South,9.2,-,N/A,,Partly Cloudy,180,2013-04-12 00:20:00
1:50 AM,46.4,44.6,93,29.42,6.2,South,8.1,-,N/A,,Scattered Clouds,180,2013-04-12 00:50:00
2:20 AM,46.4,42.8,87,29.42,6.2,South,6.9,-,N/A,,Scattered Clouds,170,2013-04-12 01:20:00
2:50 AM,46.4,42.8,87,29.42,6.2,South,6.9,-,N/A,,Scattered Clouds,170,2013-04-12 01:50:00
3:20 AM,44.6,41.0,87,29.39,6.2,SSE,6.9,-,N/A,,Partly Cloudy,150,2013-04-12 02:20:00
3:50 AM,43,42,95,29.39,14,SE,8.1,,,,Scattered Clouds,140,2013-04-12 02:50:00
3:50 AM,42.8,41.0,93,29.39,6.2,SE,8.1,-,N/A,,Partly Cloudy,140,2013-04-12 02:50:00
4:20 AM,44.6,42.8,93,29.36,6.2,SE,6.9,-,N/A,,Scattered Clouds,140,2013-04-12 03:20:00
4:50 AM,44.6,42.8,93,29.36,6.2,SE,8.1,-,N/A,Rain,Light Rain Showers,130,2013-04-12 03:50:00
5:20 AM,46.4,44.6,93,29.36,6.2,SSE,8.1,-,N/A,Rain,Rain,160,2013-04-12 04:20:00
5:50 AM,44.6,42.8,93,29.33,5.6,SSE,8.1,-,N/A,Rain,Light Rain,150,2013-04-12 04:50:00
6:20 AM,44.6,42.8,93,29.33,3.7,SE,9.2,-,N/A,Rain,Rain,130,2013-04-12 05:20:00
6:50 AM,45,44,95,29.32,3,SE,10.4,,,Rain,Light Rain,130,2013-04-12 05:50:00
6:50 AM,44.6,42.8,93,29.33,4.3,SE,8.1,-,N/A,Rain,Light Rain Showers,130,2013-04-12 05:50:00
7:20 AM,46.4,44.6,93,29.30,5.0,SE,6.9,-,N/A,Rain,Light Rain Showers,140,2013-04-12 06:20:00
7:50 AM,46.4,44.6,93,29.30,5.6,SSE,6.9,19.6,N/A,Rain,Light Rain Showers,150,2013-04-12 06:50:00
8:20 AM,48.2,44.6,87,29.30,6.2,South,10.4,-,N/A,,Mostly Cloudy,180,2013-04-12 07:20:00
8:50 AM,48.2,44.6,87,29.30,6.2,South,9.2,-,N/A,,Mostly Cloudy,190,2013-04-12 07:50:00
9:20 AM,48.2,44.6,87,29.30,6.2,South,11.5,-,N/A,,Mostly Cloudy,190,2013-04-12 08:20:00
9:50 AM,48,46,90,29.33,9,South,10.4,,,Rain,Rain,190,2013-04-12 08:50:00
9:50 AM,48.2,44.6,87,29.33,6.2,SSW,10.4,-,N/A,Rain,Light Rain Showers,200,2013-04-12 08:50:00
10:20 AM,50.0,46.4,87,29.33,6.2,SW,12.7,-,N/A,,Mostly Cloudy,220,2013-04-12 09:20:00
10:50 AM,50.0,46.4,87,29.33,6.2,WSW,13.8,-,N/A,,Mostly Cloudy,240,2013-04-12 09:50:00
11:20 AM,50.0,44.6,82,29.36,6.2,WSW,15.0,-,N/A,,Mostly Cloudy,240,2013-04-12 10:20:00
11:50 AM,50.0,46.4,87,29.36,6.2,WSW,12.7,-,N/A,,Mostly Cloudy,250,2013-04-12 10:50:00
12:20 PM,50.0,46.4,87,29.39,6.2,WSW,16.1,-,N/A,,Mostly Cloudy,250,2013-04-12 11:20:00
12:50 PM,49,46,85,29.40,15,West,9.2,,,Rain,Light Rain,280,2013-04-12 11:50:00
12:50 PM,50.0,46.4,87,29.39,6.2,WNW,10.4,-,N/A,,Mostly Cloudy,290,2013-04-12 11:50:00
1:20 PM,53.6,46.4,77,29.39,6.2,WNW,13.8,-,N/A,,Mostly Cloudy,300,2013-04-12 12:20:00
1:50 PM,50.0,46.4,87,29.42,6.2,West,12.7,-,N/A,,Scattered Clouds,270,2013-04-12 12:50:00
2:20 PM,53.6,48.2,82,29.42,6.2,West,17.3,-,N/A,,Scattered Clouds,280,2013-04-12 13:20:00
2:50 PM,51.8,42.8,71,29.44,6.2,WNW,12.7,-,N/A,Rain,Light Rain Showers,300,2013-04-12 13:50:00
3:20 PM,53.6,48.2,82,29.44,6.2,West,13.8,-,N/A,,Scattered Clouds,260,2013-04-12 14:20:00
3:50 PM,52,46,75,29.49,22,West,15.0,,,Rain,Rain,260,2013-04-12 14:50:00
3:50 PM,50.0,44.6,82,29.47,6.2,West,15.0,-,N/A,,Scattered Clouds,270,2013-04-12 14:50:00
4:20 PM,51.8,46.4,82,29.50,6.2,West,16.1,-,N/A,Rain,Light Rain Showers,270,2013-04-12 15:20:00
4:50 PM,51.8,46.4,82,29.53,6.2,West,13.8,-,N/A,,Scattered Clouds,270,2013-04-12 15:50:00
5:20 PM,53.6,44.6,72,29.53,6.2,West,12.7,-,N/A,,Scattered Clouds,280,2013-04-12 16:20:00
5:50 PM,51.8,44.6,76,29.56,6.2,NW,9.2,-,N/A,,Scattered Clouds,310,2013-04-12 16:50:00
6:20 PM,48.2,44.6,87,29.59,6.2,West,11.5,-,N/A,Rain,Light Rain Showers,270,2013-04-12 17:20:00
6:50 PM,51,46,77,29.60,22,West,10.4,,,Rain,Rain,260,2013-04-12 17:50:00
6:50 PM,50.0,44.6,82,29.59,6.2,West,12.7,-,N/A,,Scattered Clouds,270,2013-04-12 17:50:00
7:20 PM,48.2,44.6,87,29.62,6.2,West,15.0,-,N/A,Rain,Light Rain Showers,270,2013-04-12 18:20:00
7:50 PM,48.2,44.6,87,29.62,6.2,West,10.4,-,N/A,,Scattered Clouds,270,2013-04-12 18:50:00
8:20 PM,50.0,44.6,82,29.65,6.2,NW,8.1,-,N/A,Rain,Light Rain Showers,320,2013-04-12 19:20:00
8:50 PM,50.0,44.6,82,29.68,6.2,WNW,6.9,-,N/A,,Scattered Clouds,300,2013-04-12 19:50:00
9:20 PM,48.2,44.6,87,29.68,6.2,West,10.4,-,N/A,,Partly Cloudy,280,2013-04-12 20:20:00
9:50 PM,48,44,79,29.71,10,WSW,9.2,,,,Scattered Clouds,250,2013-04-12 20:50:00
9:50 PM,48.2,42.8,82,29.71,-9999.0,West,9.2,-,N/A,,Clear,270,2013-04-12 20:50:00
10:20 PM,46.4,42.8,87,29.71,-9999.0,WSW,9.2,-,N/A,,Clear,240,2013-04-12 21:20:00
10:50 PM,46.4,42.8,87,29.71,-9999.0,WSW,11.5,-,N/A,,Clear,250,2013-04-12 21:50:00
11:20 PM,46.4,42.8,87,29.74,-9999.0,West,10.4,-,N/A,,Clear,260,2013-04-12 22:20:00
11:50 PM,46.4,41.0,81,29.74,-9999.0,WSW,8.1,-,N/A,,Clear,250,2013-04-12 22:50:00